Amsterdam, Netherlands

10:19 AM CET on February 22, 2017 (GMT +0100)
Schiphol

Weather History for EHAM - January, 2013

Change the Weather History Date:

Wednesday, January 23, 2013

  Actual Average Record
Temperature  
Mean Temperature 22 °F -  
Max Temperature 27 °F 43 °F 50 °F (2001)
Min Temperature 18 °F 34 °F 18 °F (2013)
Degree Days  
Heating Degree Days 42    
Moisture  
Dew Point 19 °F    
Average Humidity 83    
Maximum Humidity 93    
Minimum Humidity 68    
Precipitation  
Precipitation 0.00 in - - ()
Sea Level Pressure  
Sea Level Pressure 29.83 in    
Wind  
Wind Speed 6 mph ()    
Max Wind Speed 14 mph    
Max Gust Speed -    
Visibility 4.1 miles    
Events      
Averages and records for this station are not official NWS values.
T = Trace of Precipitation, MM = Missing Value Source: Averaged Metar Reports

Daily Weather History Graph

Daily Weather History Graph

Search for Another Location

Airport or City:

Trip Planner

Search our weather history database for the weather conditions in past years. The results will help you decide how hot, cold, wet, or windy it might be!

Date:

Astronomy

Jan. 23, 2013 Rise Set
Actual Time 8:34 AM CET 5:11 PM CET
Civil Twilight 7:56 AM CET 5:49 PM CET
Nautical Twilight 7:14 AM CET 6:31 PM CET
Astronomical Twilight 6:34 AM CET 7:11 PM CET
Moon 2:02 PM CET (1/23) 5:40 AM CET (1/23)
Length of Visible Light 9h 53m
Length of Day
8h 36m
Waxing Gibbous, 87% of the Moon is Illuminated
Jan 23
Waxing Gibbous
Jan 27
Full
Feb 3
Last Quarter
Feb 10
New
Feb 17
First Quarter

Hourly Weather History & Observations

Time (CET) Temp. Windchill Dew Point Humidity Pressure Visibility Wind Dir Wind Speed Gust Speed Precip Events Conditions
12:25 AM 21.2 °F 14.9 °F 19.4 °F 93% 29.77 in 3.7 mi East 4.6 mph - N/A   Partly Cloudy
12:55 AM 21.2 °F 14.9 °F 17.6 °F 86% 29.80 in 3.7 mi ENE 4.6 mph - N/A   Mostly Cloudy
1:00 AM 21 °F - 18 °F 83% 29.80 in 3 mi ENE 4.5 mph - -   Mist
1:25 AM 21.2 °F 16.4 °F 19.4 °F 93% 29.80 in 3.7 mi ENE 3.5 mph - N/A   Mostly Cloudy
1:55 AM 21.2 °F - 19.4 °F 93% 29.80 in 3.7 mi East 2.3 mph - N/A   Mostly Cloudy
2:25 AM 23.0 °F 17.0 °F 19.4 °F 86% 29.80 in 3.7 mi East 4.6 mph - N/A   Mostly Cloudy
2:55 AM 23.0 °F 17.0 °F 19.4 °F 86% 29.80 in 3.7 mi East 4.6 mph - N/A   Mostly Cloudy
3:25 AM 24.8 °F 16.9 °F 21.2 °F 86% 29.80 in 2.8 mi East 6.9 mph - N/A   Mostly Cloudy
3:55 AM 19.4 °F 11.5 °F 17.6 °F 93% 29.80 in - ENE 5.8 mph - N/A   Mostly Cloudy
4:00 AM 21 °F - 18 °F 85% 29.81 in 3 mi ENE 4.5 mph - -   Mist
4:25 AM 19.4 °F 14.3 °F 17.6 °F 93% 29.80 in 3.1 mi ENE 3.5 mph - N/A   Partly Cloudy
4:55 AM 19.4 °F 12.8 °F 17.6 °F 93% 29.80 in 3.1 mi East 4.6 mph - N/A   Partly Cloudy
5:25 AM 19.4 °F 12.8 °F 17.6 °F 93% 29.80 in 3.1 mi East 4.6 mph - N/A   Partly Cloudy
5:55 AM 19.4 °F 11.5 °F 17.6 °F 93% 29.80 in 3.1 mi East 5.8 mph - N/A   Partly Cloudy
6:25 AM 19.4 °F 11.5 °F 15.8 °F 86% 29.80 in 3.7 mi East 5.8 mph - N/A   Partly Cloudy
6:55 AM 19.4 °F 14.3 °F 17.6 °F 93% 29.80 in 3.1 mi ENE 3.5 mph - N/A   Partly Cloudy
7:00 AM 19 °F - 17 °F 89% 29.82 in 3 mi East 4.5 mph - -   Mist
7:25 AM 19.4 °F 11.5 °F 17.6 °F 93% 29.80 in 3.1 mi ENE 5.8 mph - N/A   Partly Cloudy
7:55 AM 19.4 °F 11.5 °F 15.8 °F 86% 29.80 in 3.1 mi ENE 5.8 mph - N/A   Partly Cloudy
8:25 AM 19.4 °F 12.8 °F 17.6 °F 93% 29.80 in 3.1 mi East 4.6 mph - N/A   Partly Cloudy
8:55 AM 19.4 °F 12.8 °F 17.6 °F 93% 29.83 in 3.1 mi East 4.6 mph - N/A   Partly Cloudy
9:25 AM 19.4 °F 12.8 °F 17.6 °F 93% 29.83 in 3.1 mi East 4.6 mph - N/A   Partly Cloudy
9:55 AM 21.2 °F 13.6 °F 17.6 °F 86% 29.83 in 3.1 mi ENE 5.8 mph - N/A   Mist
10:00 AM 22 °F - 19 °F 81% 29.84 in 4 mi ENE 6.7 mph - -   Mist
10:25 AM 23.0 °F 14.7 °F 19.4 °F 86% 29.83 in 3.1 mi ENE 6.9 mph - N/A   Mist
10:55 AM 24.8 °F 15.3 °F 21.2 °F 86% 29.83 in 3.7 mi ENE 9.2 mph - N/A   Unknown
11:25 AM 24.8 °F 16.1 °F 21.2 °F 86% 29.83 in 3.7 mi NE 8.1 mph - N/A   Unknown
11:55 AM 24.8 °F 16.1 °F 21.2 °F 86% 29.83 in 3.7 mi NE 8.1 mph - N/A   Unknown
12:25 PM 26.6 °F 19.1 °F 21.2 °F 80% 29.83 in 3.7 mi ENE 6.9 mph - N/A   Unknown
12:55 PM 26.6 °F 18.2 °F 21.2 °F 80% 29.83 in 3.7 mi NE 8.1 mph - N/A   Unknown
1:00 PM 26 °F - 21 °F 75% 29.85 in 4 mi NE 8.9 mph - -   Mist
1:25 PM 26.6 °F 17.5 °F 21.2 °F 80% 29.83 in 3.7 mi NE 9.2 mph - N/A   Mostly Cloudy
1:55 PM 26.6 °F 17.5 °F 21.2 °F 80% 29.83 in 3.7 mi ENE 9.2 mph - N/A   Mostly Cloudy
2:25 PM 26.6 °F 20.0 °F 21.2 °F 80% 29.83 in 3.7 mi ENE 5.8 mph - N/A   Mostly Cloudy
2:55 PM 26.6 °F 18.2 °F 21.2 °F 80% 29.83 in 3.7 mi ENE 8.1 mph - N/A   Mostly Cloudy
3:25 PM 26.6 °F 18.2 °F 21.2 °F 80% 29.83 in 3.7 mi NE 8.1 mph - N/A   Mostly Cloudy
3:55 PM 26.6 °F 18.2 °F 21.2 °F 80% 29.83 in 4.3 mi NE 8.1 mph - N/A   Mostly Cloudy
4:00 PM 26 °F - 21 °F 75% 29.86 in 4 mi NE 8.9 mph - -   Mist
4:25 PM 26.6 °F 16.8 °F 21.2 °F 80% 29.83 in 4.3 mi NE 10.4 mph - N/A   Unknown
4:55 PM 26.6 °F 16.8 °F 21.2 °F 80% 29.83 in 4.3 mi NE 10.4 mph - N/A   Mostly Cloudy
5:25 PM 26.6 °F 16.8 °F 21.2 °F 80% 29.86 in 3.7 mi ENE 10.4 mph - N/A   Overcast
5:55 PM 26.6 °F 17.5 °F 21.2 °F 80% 29.86 in 3.7 mi ENE 9.2 mph - N/A   Overcast
6:25 PM 24.8 °F 14.0 °F 19.4 °F 80% 29.86 in 4.3 mi East 11.5 mph - N/A   Overcast
6:55 PM 24.8 °F 14.0 °F 19.4 °F 80% 29.86 in 5.6 mi ENE 11.5 mph - N/A   Overcast
7:00 PM 26 °F - 20 °F 68% 29.87 in 5 mi ENE 11.2 mph - -   Mist
7:25 PM 24.8 °F 14.6 °F 19.4 °F 80% 29.86 in 6.2 mi ENE 10.4 mph - N/A   Overcast
7:55 PM 24.8 °F 14.0 °F 19.4 °F 80% 29.86 in 6.2 mi ENE 11.5 mph - N/A   Overcast
8:25 PM 24.8 °F 13.4 °F 19.4 °F 80% 29.86 in 6.2 mi ENE 12.7 mph - N/A   Overcast
8:55 PM 24.8 °F 14.0 °F 19.4 °F 80% 29.86 in 6.2 mi ENE 11.5 mph - N/A   Overcast
9:25 PM 26.6 °F 15.2 °F 19.4 °F 74% 29.86 in 6.2 mi ENE 13.8 mph - N/A   Mostly Cloudy
9:55 PM 26.6 °F 16.2 °F 19.4 °F 74% 29.86 in 6.2 mi ENE 11.5 mph - N/A   Mostly Cloudy
10:00 PM 26 °F - 20 °F 68% 29.89 in 7 mi East 8.9 mph - -   Overcast
10:25 PM 26.6 °F 19.1 °F 19.4 °F 74% 29.89 in 6.2 mi East 6.9 mph - N/A   Overcast
10:55 PM 26.6 °F 18.2 °F 21.2 °F 80% 29.89 in 6.2 mi East 8.1 mph - N/A   Overcast
11:25 PM 26.6 °F 16.8 °F 21.2 °F 80% 29.89 in 6.2 mi ENE 10.4 mph - N/A   Overcast
11:55 PM 26.6 °F 16.8 °F 19.4 °F 74% 29.89 in 6.2 mi ENE 10.4 mph - N/A   Overcast